Regional Weather Roundup
Issued by NWS

Home | Current Version | Previous Version | Text Only | Print | Product List | Glossary On
Versions: 1 2 3 4 5 6 7 8 9 10 11 12 13 14 15 16 17 18 19 20 21 22 23 24 25 26 27 28 29 30 31 32 33 34 35 36 37 38 39 40 41 42 43 44 45 46 47 48 49 50
000
ASUS44 KFWD 292015
RWRTX
NORTH TEXAS HOURLY WEATHER ROUNDUP
NATIONAL WEATHER SERVICE FORT WORTH TX
300 PM CDT FRI APR 29 2016

NOTE: "FAIR" INDICATES FEW OR NO CLOUDS BELOW 12,000 FEET WITH NO
SIGNIFICANT WEATHER AND/OR OBSTRUCTIONS TO VISIBILITY.

TXZ118-119-292100-
DALLAS/FORT WORTH METROPLEX

CITY           SKY/WX    TMP DP  RH WIND       PRES   REMARKS
DFW AIRPORT    CLOUDY    83  73  72 S13       29.58F HAZE
DALLAS LOVE    CLOUDY    82  73  74 S10       29.58F HAZE
FTW MEACHAM    PTSUNNY   83  72  69 S8        29.57F
DAL-EXECUTIVE  PTSUNNY   82  74  76 S9G21     29.58F HAZE
FTW-ALLIANCE   CLOUDY    82  72  71 SW6       29.58F
FTW-NAS-JRB    CLOUDY    82  72  71 SW10      29.57F
FTW-SPINKS     PTSUNNY   82  73  74 S10G17    29.59F HAZE
ARLINGTON      CLOUDY    85  74  69 S13G22    29.57F HX  92
GRAND PRAIRIE  SUNNY     81  73  78 S10G16    29.59F FOG
ADDISON        MOSUNNY   82  75  78 S10G18    29.60F HAZE
MESQUITE       CLOUDY    77  73  88 SE17G23   29.62F
LANCASTER      CLOUDY    78  71  78 S15G21    29.61F
$$

TXZ091>094-102>105-117-120-121-131>134-292100-
NORTH CENTRAL TEXAS

CITY           SKY/WX    TMP DP  RH WIND       PRES   REMARKS
SHRMAN/DENISON CLOUDY    73  66  80 E17       29.63F
GAINESVILLE    CLOUDY    78  72  81 SE9       29.61F HAZE
BOWIE          PTSUNNY   80  71  72 SE9       29.59F
BRIDGEPORT     PTSUNNY   81  73  76 S8        29.60F
DECATUR        RAIN      77  73  86 S8        29.61F
DENTON         CLOUDY    75  67  76 SW5       29.58F
MCKINNEY       LGT RAIN  77  74  90 SE8       29.61F FOG
GREENVILLE     CLOUDY    77  70  78 SE10      29.64F HAZE
ROCKWALL       CLOUDY    81  74  80 S17G32    29.61F
TERRELL        HVY RAIN  74  72  93 S10       29.63F FOG
WAXAHACHIE     PTSUNNY   80  74  82 SE14G21   29.61F HAZE
CLEBURNE       CLOUDY    79  77  94 S10       29.61F FOG
GRANBURY       DRIZZLE   76  72  87 SW3       29.59F
$$

TXZ083>090-098>101-113>116-127>130-139>142-154-155-292100-
WESTERN NORTH TEXAS

CITY           SKY/WX    TMP DP  RH WIND       PRES   REMARKS
WICHITA FALLS  PTSUNNY   86  69  56 S21G28    29.53F HX  90
WF-KICKAPOO    SUNNY     88  67  48 S20G25    29.55F HX  91
VERNON         SUNNY     76  60  59 NW16G26   29.59R
ABILENE        SUNNY     86  46  24 W15       29.63F
ABILENE-DYESS  MOSUNNY   86  49  27 SW13      29.62F
BRECKENRIDGE   MOSUNNY   87  64  46 SW9       29.58F HAZE
GRAHAM         MOSUNNY   82  68  62 W18G26    29.59S
MINERAL WELLS  TSTM      77  72  84 S15       29.58F
STEPHENVILLE   PTSUNNY   72  66  82 S3        29.66F
COMANCHE       CLOUDY    77  74  90 S9        29.63F
BROWNWOOD      CLOUDY    75  68  78 CALM      29.61F
COLEMAN        SUNNY     87  60  40 W8        29.61F
$$

TXZ143>147-156>162-174-175-292100-
CENTRAL TEXAS

CITY           SKY/WX    TMP DP  RH WIND       PRES   REMARKS
WACO           CLOUDY    77  73  87 S13       29.60F FOG
WACO-TSTC      LGT RAIN  77  73  88 S16G24    29.63
WACO-MCGREGOR  LGT RAIN  77  75  93 S18G24    29.62F
HILLSBORO      CLOUDY    80  73  79 S16       29.63S HAZE
CORSICANA      TSTM      74  72  93 S14       29.66S VSB 1
MEXIA          TSTM      70  70  98 S16G32    29.64F
HEARNE         CLOUDY    82  73  74 SE15G22   29.65F
CAMERON        PTSUNNY   86  73  65 S23G31    29.63F HX  92
TEMPLE         CLOUDY    77  73  88 S15       29.62F
KILLEEN        PTSUNNY   77  75  94 SE16      29.61F
KILLEEN-SKYLRK LGT RAIN  76  74  93 S15G24    29.64F
FORT HOOD      CLOUDY    73  73 100 S10       29.61F
GATESVILLE     TSTM      79  75  89 MISG      29.64S
HAMILTON       MOSUNNY   85  72  64 S12G22    29.63F HAZE    HX  91
LAMPASAS       CLOUDY    84  73  68 S14       29.62F HX  91
$$

TXZ095>097-106>112-122>126-135>138-148>153-164>167-292100-
EAST TEXAS

CITY           SKY/WX    TMP DP  RH WIND       PRES   REMARKS
PARIS          CLOUDY    70  63  78 E12G23    29.68F THUNDER
SULPHUR SPRNGS TSTM      69  68  98 SE10G17   29.68F VSB 1
MOUNT PLEASANT CLOUDY    70  70  99 E6        29.70F VSB 1/2
GILMER         CLOUDY    71  69  93 NE6       29.70S THUNDER
MINEOLA        TSTM      70  68  94 SE8       29.67F VSB 1
TYLER          TSTM      75  70  84 E3        29.67F
LONGVIEW       CLOUDY    75  70  84 E12G22    29.67F
MARSHALL       CLOUDY    73  69  90 E6        29.73F
ATHENS         TSTM      72  72 100 CALM      29.64S VSB 1/4
PALESTINE      LGT RAIN  77  71  80 SW7       29.69R
JACKSONVILLE   CLOUDY    79  69  71 S8        29.70F
HENDERSON      CLOUDY    81  69  67 S6        29.69F
CENTER         MOCLDY    84  70  63 S12       29.70F
NACOGDOCHES    CLOUDY    82  70  65 S10G18    29.67F
LUFKIN         CLOUDY    82  69  64 S15G23    29.68F
$$

SUPPLEMENTAL OBSERVATIONS (CENTRAL)

CITY           SKY/WX    TMP DP  RH WIND       PRES   REMARKS
LAKE TEXOMA      N/A     73  68  83 E10         N/A
CADDO GRASSLND   N/A     72  68  88 E5G13       N/A
PAT MAYSE LAKE   N/A     70  68  94 E10         N/A
GREENVILLE       N/A     72  66  83 SE9         N/A
CEDAR HILL       N/A     82  73  74 S9G17       N/A
ATHENS           N/A     73  70  88 S10G21      N/A
LAKE LIMESTONE   N/A     75  73  94 SW5         N/A
MCGREGOR         N/A     75  72  88 S10G25      N/A
TEMPLE           N/A     77  72  83 S15G28      N/A
$$

SUPPLEMENTAL OBSERVATIONS (WEST)

CITY           SKY/WX    TMP DP  RH WIND       PRES   REMARKS
POSSUM KINGDOM   N/A     90  66  45 SW12        N/A  HX  92
LBJ GRASSLAND    N/A     79  72  78 S10         N/A
GRANBURY         N/A     75  72  88 SW7         N/A
COMANCHE         N/A     77  73  88 SW8         N/A
HAMBY            N/A     86  46  25 W13G22      N/A
IVIE RESERVOIR   N/A     88  57  35 W10         N/A
COLORADO BEND    N/A     84  68  58 SW14G22     N/A
$$

SUPPLEMENTAL OBSERVATIONS (EAST)

CITY           SKY/WX    TMP DP  RH WIND       PRES   REMARKS
CLARKSVILLE      N/A     68  66  94 NE6         N/A
TEXARKANA        N/A     72  68  88 E3G12       N/A
LINDEN           N/A     72  66  83 E5          N/A
CADDO LAKE       N/A     73  70  88 E5          N/A
GILMER           N/A     72  66  83 E3G12       N/A
HENDERSON        N/A     81  68  65 S6G18       N/A
N SABINE NF      N/A     84  68  58 MISG        N/A
S SABINE NF      N/A     84  68  58 SE5G15      N/A
$$

SUPPLEMENTAL OBSERVATIONS ARE A COLLECTION OF AUTOMATED INSTRUMENTS
THAT ARE MAINTAINED BY A VARIETY OF FEDERAL AND STATE AGENCIES.
CERTAIN ELEMENTS...SUCH AS HUMIDITY VALUES AND SUSTAINED WIND
SPEEDS...MAY BE APPROXIMATED.




USA.gov is the U.S. government's official web portal to all federal, state and local government web resources and services.